User: anonymous   Login
Location: San Gennaro Vesuviano
(40.8833°N, 14.5333°E)
Time: 12:07:35
(UTC+00:00)
Language:

SPOT 3 Rocket - Orbit

View from above orbital plane
View from above orbital plane
View from above satellite
View from above satellite

Ground track
Ground track

The orbit data is extracted from the following two-line orbital elements,

1 22830U 93061H   21173.76412245 -.00000005  00000-0  14942-4 0  9999
2 22830  98.7130 231.3320 0010055 320.9442  39.1014 14.31483793447808
Epoch (UTC): 22 June 2021 18:20:20
Eccentricity: 0.0010055
inclination: 98.7130°
perigee height: 779 km
apogee height: 794 km
right ascension of ascending node: 231.3320°
argument of perigee: 320.9442°
revolutions per day: 14.31483793
mean anomaly at epoch: 39.1014°
orbit number at epoch: 44780

The dashed part of the orbit path shows where the satellite is in the earth's shadow,  

DLR